Time,TemperatureF,DewpointF,PressureIn,WindDirection,WindDirectionDegrees,WindSpeedMPH,WindSpeedGustMPH,Humidity,HourlyPrecipIn,Conditions,Clouds,dailyrainin,SoftwareType,DateUTC
2013-02-17 00:02:00,19.0,16.0,29.86,West,281,5.0,7.0,86,0.00,,,0.00,,2013-02-17 05:02:00,
2013-02-17 00:12:00,19.0,16.0,29.85,WNW,286,5.0,8.0,87,0.00,,,0.00,,2013-02-17 05:12:00,
2013-02-17 00:22:00,19.0,16.0,29.85,WNW,286,5.0,8.0,87,0.00,,,0.00,,2013-02-17 05:22:00,
2013-02-17 00:33:00,19.0,18.0,29.85,NW,319,6.0,8.0,96,0.00,,,0.00,,2013-02-17 05:33:00,
2013-02-17 00:42:00,19.0,18.0,29.85,NW,319,6.0,8.0,96,0.00,,,0.00,,2013-02-17 05:42:00,
2013-02-17 00:52:00,20.0,17.0,29.86,West,267,5.0,9.0,88,0.00,,,0.00,,2013-02-17 05:52:00,
2013-02-17 01:02:00,19.0,16.0,29.85,NW,309,8.0,13.0,89,0.00,,,0.00,,2013-02-17 06:02:00,
2013-02-17 01:11:00,19.0,16.0,29.85,NW,309,8.0,13.0,89,0.00,,,0.00,,2013-02-17 06:11:00,
2013-02-17 01:21:00,19.0,16.0,29.86,NW,306,7.0,21.0,88,0.00,,,0.00,,2013-02-17 06:21:00,
2013-02-17 01:32:00,19.0,16.0,29.87,NNW,348,9.0,13.0,89,0.00,,,0.00,,2013-02-17 06:32:00,
2013-02-17 01:42:00,19.0,16.0,29.87,NNW,348,9.0,13.0,89,0.00,,,0.00,,2013-02-17 06:42:00,
2013-02-17 01:52:00,19.0,16.0,29.87,WNW,295,6.0,16.0,89,0.00,,,0.00,,2013-02-17 06:52:00,
2013-02-17 02:01:00,19.0,16.0,29.87,NNW,332,12.0,20.0,89,0.00,,,0.00,,2013-02-17 07:01:00,
2013-02-17 02:11:00,19.0,16.0,29.87,NNW,332,12.0,20.0,89,0.00,,,0.00,,2013-02-17 07:11:00,
2013-02-17 02:21:00,18.0,16.0,29.87,NW,304,15.0,22.0,92,0.00,,,0.00,,2013-02-17 07:21:00,
2013-02-17 02:32:00,18.0,13.0,29.88,NW,316,8.0,18.0,82,0.00,,,0.00,,2013-02-17 07:32:00,
2013-02-17 02:42:00,18.0,13.0,29.88,NW,316,8.0,18.0,82,0.00,,,0.00,,2013-02-17 07:42:00,
2013-02-17 02:52:00,18.0,13.0,29.87,WNW,302,6.0,15.0,82,0.00,,,0.00,,2013-02-17 07:52:00,
2013-02-17 03:01:00,18.0,14.0,29.88,West,267,7.0,17.0,83,0.00,,,0.00,,2013-02-17 08:01:00,
2013-02-17 03:11:00,18.0,14.0,29.88,West,267,7.0,17.0,83,0.00,,,0.00,,2013-02-17 08:11:00,
2013-02-17 03:21:00,17.0,13.0,29.88,WNW,288,6.0,9.0,85,0.00,,,0.00,,2013-02-17 08:21:00,
2013-02-17 03:32:00,17.0,14.0,29.88,WNW,290,4.0,12.0,87,0.00,,,0.00,,2013-02-17 08:32:00,
2013-02-17 03:42:00,17.0,14.0,29.88,WNW,290,4.0,12.0,87,0.00,,,0.00,,2013-02-17 08:42:00,
2013-02-17 03:52:00,17.0,14.0,29.88,NW,320,12.0,16.0,88,0.00,,,0.00,,2013-02-17 08:52:00,
2013-02-17 04:02:00,17.0,14.0,29.88,WNW,292,9.0,16.0,88,0.00,,,0.00,,2013-02-17 09:02:00,
2013-02-17 04:11:00,17.0,14.0,29.88,WNW,292,9.0,16.0,88,0.00,,,0.00,,2013-02-17 09:11:00,
2013-02-17 04:21:00,17.0,14.0,29.88,WNW,300,10.0,17.0,88,0.00,,,0.00,,2013-02-17 09:21:00,
2013-02-17 04:32:00,16.0,13.0,29.88,WNW,292,10.0,24.0,88,0.00,,,0.00,,2013-02-17 09:32:00,
2013-02-17 04:42:00,16.0,13.0,29.88,WNW,292,10.0,24.0,88,0.00,,,0.00,,2013-02-17 09:42:00,
2013-02-17 04:52:00,16.0,13.0,29.89,NW,311,11.0,16.0,88,0.00,,,0.00,,2013-02-17 09:52:00,
2013-02-17 05:01:00,16.0,13.0,29.90,NW,308,6.0,18.0,89,0.00,,,0.00,,2013-02-17 10:01:00,
2013-02-17 05:11:00,16.0,13.0,29.90,NW,308,6.0,18.0,89,0.00,,,0.00,,2013-02-17 10:11:00,
2013-02-17 05:21:00,15.0,12.0,29.90,West,268,14.0,21.0,88,0.00,,,0.00,,2013-02-17 10:21:00,
2013-02-17 05:32:00,14.0,11.0,29.88,WNW,292,11.0,23.0,88,0.00,,,0.00,,2013-02-17 10:32:00,
2013-02-17 05:42:00,14.0,11.0,29.88,WNW,292,11.0,23.0,88,0.00,,,0.00,,2013-02-17 10:42:00,
2013-02-17 05:52:00,14.0,11.0,29.89,WNW,287,9.0,20.0,88,0.00,,,0.00,,2013-02-17 10:52:00,
2013-02-17 06:01:00,13.0,10.0,29.90,WNW,286,10.0,18.0,88,0.00,,,0.00,,2013-02-17 11:01:00,
2013-02-17 06:11:00,13.0,10.0,29.90,WNW,286,10.0,18.0,88,0.00,,,0.00,,2013-02-17 11:11:00,
2013-02-17 06:22:00,13.0,10.0,29.90,WNW,284,7.0,14.0,87,0.00,,,0.00,,2013-02-17 11:22:00,
2013-02-17 06:32:00,13.0,10.0,29.90,NW,318,8.0,20.0,86,0.00,,,0.00,,2013-02-17 11:32:00,
2013-02-17 06:42:00,13.0,10.0,29.90,NW,318,8.0,20.0,86,0.00,,,0.00,,2013-02-17 11:42:00,
2013-02-17 06:53:00,13.0,9.0,29.91,WNW,302,10.0,17.0,85,0.00,,,0.00,,2013-02-17 11:53:00,
2013-02-17 07:03:00,13.0,9.0,29.92,WNW,287,6.0,14.0,84,0.00,,,0.00,,2013-02-17 12:03:00,
2013-02-17 07:11:00,13.0,9.0,29.92,WNW,287,6.0,14.0,84,0.00,,,0.00,,2013-02-17 12:11:00,
2013-02-17 07:22:00,13.0,9.0,29.92,WNW,283,5.0,13.0,83,0.00,,,0.00,,2013-02-17 12:22:00,
2013-02-17 07:32:00,13.0,9.0,29.93,West,260,5.0,13.0,82,0.00,,,0.00,,2013-02-17 12:32:00,
2013-02-17 07:42:00,13.0,9.0,29.93,West,260,5.0,13.0,82,0.00,,,0.00,,2013-02-17 12:42:00,
2013-02-17 07:52:00,13.0,8.0,29.93,West,276,7.0,17.0,80,0.00,,,0.00,,2013-02-17 12:52:00,
2013-02-17 08:02:00,13.0,8.0,29.94,WNW,301,6.0,16.0,79,0.00,,,0.00,,2013-02-17 13:02:00,
2013-02-17 08:12:00,13.0,8.0,29.94,WNW,301,6.0,16.0,79,0.00,,,0.00,,2013-02-17 13:12:00,
2013-02-17 08:22:00,12.0,6.0,29.95,WNW,288,8.0,18.0,78,0.00,,,0.00,,2013-02-17 13:22:00,
2013-02-17 08:32:00,12.0,7.0,29.96,WNW,284,8.0,13.0,79,0.00,,,0.00,,2013-02-17 13:32:00,
2013-02-17 08:42:00,12.0,7.0,29.96,WNW,284,8.0,13.0,79,0.00,,,0.00,,2013-02-17 13:42:00,
2013-02-17 08:52:00,12.0,7.0,29.96,West,275,9.0,16.0,79,0.00,,,0.00,,2013-02-17 13:52:00,
2013-02-17 09:01:00,12.0,7.0,29.97,WNW,290,8.0,13.0,80,0.00,,,0.00,,2013-02-17 14:01:00,
2013-02-17 09:11:00,12.0,7.0,29.97,WNW,290,8.0,13.0,80,0.00,,,0.00,,2013-02-17 14:11:00,
2013-02-17 09:22:00,12.0,7.0,29.97,West,277,9.0,16.0,80,0.00,,,0.00,,2013-02-17 14:22:00,
2013-02-17 09:32:00,12.0,8.0,29.98,WNW,287,4.0,16.0,82,0.00,,,0.00,,2013-02-17 14:32:00,
2013-02-17 09:42:00,12.0,8.0,29.98,WNW,287,4.0,16.0,82,0.00,,,0.00,,2013-02-17 14:42:00,
2013-02-17 09:53:00,12.0,8.0,29.98,NW,309,4.0,11.0,83,0.00,,,0.00,,2013-02-17 14:53:00,
2013-02-17 10:02:00,12.0,8.0,29.99,WSW,258,9.0,18.0,82,0.00,,,0.00,,2013-02-17 15:02:00,
2013-02-17 10:11:00,12.0,8.0,29.99,WSW,258,9.0,18.0,82,0.00,,,0.00,,2013-02-17 15:11:00,
2013-02-17 10:22:00,13.0,9.0,29.99,West,272,10.0,15.0,83,0.00,,,0.00,,2013-02-17 15:22:00,
2013-02-17 10:32:00,13.0,9.0,30.00,West,266,10.0,14.0,82,0.00,,,0.00,,2013-02-17 15:32:00,
2013-02-17 10:42:00,13.0,9.0,30.00,West,266,10.0,14.0,82,0.00,,,0.00,,2013-02-17 15:42:00,
2013-02-17 10:52:00,13.0,8.0,30.01,WNW,294,8.0,15.0,81,0.00,,,0.00,,2013-02-17 15:52:00,
2013-02-17 11:01:00,13.0,8.0,30.01,West,271,10.0,18.0,79,0.00,,,0.00,,2013-02-17 16:01:00,
2013-02-17 11:12:00,13.0,8.0,30.01,West,271,10.0,18.0,79,0.00,,,0.00,,2013-02-17 16:12:00,
2013-02-17 11:22:00,14.0,8.0,30.01,West,279,12.0,20.0,77,0.00,,,0.00,,2013-02-17 16:22:00,
2013-02-17 11:32:00,14.0,8.0,30.01,West,269,8.0,15.0,77,0.00,,,0.00,,2013-02-17 16:32:00,
2013-02-17 11:42:00,14.0,8.0,30.01,West,269,8.0,15.0,77,0.00,,,0.00,,2013-02-17 16:42:00,
2013-02-17 11:52:00,15.0,9.0,30.02,WSW,250,12.0,21.0,75,0.00,,,0.00,,2013-02-17 16:52:00,
2013-02-17 12:02:00,15.0,8.0,30.02,NW,306,13.0,21.0,73,0.00,,,0.00,,2013-02-17 17:02:00,
2013-02-17 12:11:00,15.0,8.0,30.02,NW,306,13.0,21.0,73,0.00,,,0.00,,2013-02-17 17:11:00,
2013-02-17 12:21:00,15.0,8.0,30.02,West,259,11.0,18.0,73,0.00,,,0.00,,2013-02-17 17:21:00,
2013-02-17 12:32:00,16.0,9.0,30.02,West,261,12.0,20.0,73,0.00,,,0.00,,2013-02-17 17:32:00,
2013-02-17 12:42:00,16.0,9.0,30.02,West,261,12.0,20.0,73,0.00,,,0.00,,2013-02-17 17:42:00,
2013-02-17 12:52:00,15.0,7.0,30.02,NW,315,15.0,24.0,71,0.00,,,0.00,,2013-02-17 17:52:00,
2013-02-17 13:02:00,17.0,9.0,30.02,WNW,295,13.0,25.0,69,0.00,,,0.00,,2013-02-17 18:02:00,
2013-02-17 13:11:00,17.0,9.0,30.02,WNW,295,13.0,25.0,69,0.00,,,0.00,,2013-02-17 18:11:00,
2013-02-17 13:22:00,16.0,7.0,30.02,West,268,15.0,30.0,66,0.00,,,0.00,,2013-02-17 18:22:00,
2013-02-17 13:33:00,16.0,7.0,30.02,West,271,15.0,25.0,67,0.00,,,0.00,,2013-02-17 18:33:00,
2013-02-17 13:42:00,16.0,7.0,30.02,West,271,15.0,25.0,67,0.00,,,0.00,,2013-02-17 18:42:00,
2013-02-17 13:52:00,16.0,7.0,30.02,West,281,14.0,29.0,68,0.00,,,0.00,,2013-02-17 18:52:00,
2013-02-17 14:01:00,16.0,8.0,30.02,WNW,287,19.0,26.0,71,0.00,,,0.00,,2013-02-17 19:01:00,
2013-02-17 14:11:00,16.0,8.0,30.02,WNW,287,19.0,26.0,71,0.00,,,0.00,,2013-02-17 19:11:00,
2013-02-17 14:22:00,17.0,9.0,30.02,WNW,290,8.0,25.0,70,0.00,,,0.00,,2013-02-17 19:22:00,
2013-02-17 14:32:00,17.0,10.0,30.02,NNW,336,11.0,23.0,74,0.00,,,0.00,,2013-02-17 19:32:00,
2013-02-17 14:42:00,17.0,10.0,30.02,NNW,336,11.0,23.0,74,0.00,,,0.00,,2013-02-17 19:42:00,
2013-02-17 14:52:00,16.0,11.0,30.03,WNW,292,11.0,18.0,80,0.00,,,0.00,,2013-02-17 19:52:00,
2013-02-17 15:02:00,17.0,10.0,30.02,West,271,15.0,22.0,73,0.00,,,0.00,,2013-02-17 20:02:00,
2013-02-17 15:11:00,17.0,10.0,30.02,West,271,15.0,22.0,73,0.00,,,0.00,,2013-02-17 20:11:00,
2013-02-17 15:22:00,17.0,10.0,30.03,NNW,327,11.0,21.0,74,0.00,,,0.00,,2013-02-17 20:22:00,
2013-02-17 15:32:00,17.0,10.0,30.03,West,264,9.0,20.0,72,0.00,,,0.00,,2013-02-17 20:32:00,
2013-02-17 15:42:00,17.0,10.0,30.03,West,264,9.0,20.0,72,0.00,,,0.00,,2013-02-17 20:42:00,
2013-02-17 15:52:00,18.0,8.0,30.03,WNW,291,14.0,26.0,65,0.00,,,0.00,,2013-02-17 20:52:00,
2013-02-17 16:02:00,18.0,8.0,30.04,WNW,285,16.0,25.0,65,0.00,,,0.00,,2013-02-17 21:02:00,
2013-02-17 16:11:00,18.0,8.0,30.04,WNW,285,16.0,25.0,65,0.00,,,0.00,,2013-02-17 21:11:00,
2013-02-17 16:21:00,18.0,8.0,30.04,West,272,10.0,24.0,65,0.00,,,0.00,,2013-02-17 21:21:00,
2013-02-17 16:32:00,18.0,8.0,30.05,WNW,298,16.0,24.0,63,0.00,,,0.00,,2013-02-17 21:32:00,
2013-02-17 16:42:00,18.0,8.0,30.05,WNW,298,16.0,24.0,63,0.00,,,0.00,,2013-02-17 21:42:00,
2013-02-17 16:53:00,18.0,9.0,30.05,West,273,15.0,27.0,67,0.00,,,0.00,,2013-02-17 21:53:00,
2013-02-17 17:01:00,18.0,9.0,30.06,West,273,13.0,19.0,68,0.00,,,0.00,,2013-02-17 22:01:00,
2013-02-17 17:12:00,18.0,9.0,30.06,West,273,13.0,19.0,68,0.00,,,0.00,,2013-02-17 22:12:00,
2013-02-17 17:22:00,17.0,9.0,30.06,West,269,10.0,18.0,70,0.00,,,0.00,,2013-02-17 22:22:00,
2013-02-17 17:32:00,17.0,10.0,30.07,NW,306,11.0,18.0,72,0.00,,,0.00,,2013-02-17 22:32:00,
2013-02-17 17:42:00,17.0,10.0,30.07,NW,306,11.0,18.0,72,0.00,,,0.00,,2013-02-17 22:42:00,
2013-02-17 17:52:00,17.0,10.0,30.07,WNW,282,5.0,9.0,74,0.00,,,0.00,,2013-02-17 22:52:00,
2013-02-17 18:02:00,17.0,10.0,30.08,NW,306,4.0,16.0,74,0.00,,,0.00,,2013-02-17 23:02:00,
2013-02-17 18:11:00,17.0,10.0,30.08,NW,306,4.0,16.0,74,0.00,,,0.00,,2013-02-17 23:11:00,
2013-02-17 18:21:00,17.0,10.0,30.09,West,275,5.0,12.0,74,0.00,,,0.00,,2013-02-17 23:21:00,
2013-02-17 18:32:00,17.0,10.0,30.09,West,270,9.0,16.0,75,0.00,,,0.00,,2013-02-17 23:32:00,
2013-02-17 18:42:00,17.0,10.0,30.09,West,270,9.0,16.0,75,0.00,,,0.00,,2013-02-17 23:42:00,
2013-02-17 18:52:00,17.0,10.0,30.10,WNW,296,7.0,11.0,75,0.00,,,0.00,,2013-02-17 23:52:00,
2013-02-17 19:02:00,17.0,10.0,30.11,West,273,8.0,18.0,74,0.00,,,0.00,,2013-02-18 00:02:00,
2013-02-17 19:12:00,17.0,10.0,30.11,West,273,8.0,18.0,74,0.00,,,0.00,,2013-02-18 00:12:00,
2013-02-17 19:22:00,17.0,10.0,30.11,WNW,290,9.0,14.0,73,0.00,,,0.00,,2013-02-18 00:22:00,
2013-02-17 19:32:00,17.0,10.0,30.12,WNW,302,8.0,15.0,73,0.00,,,0.00,,2013-02-18 00:32:00,
2013-02-17 19:42:00,17.0,10.0,30.12,WNW,302,8.0,15.0,73,0.00,,,0.00,,2013-02-18 00:42:00,
2013-02-17 19:52:00,16.0,9.0,30.12,WNW,292,7.0,11.0,73,0.00,,,0.00,,2013-02-18 00:52:00,
2013-02-17 20:01:00,17.0,10.0,30.13,WNW,302,6.0,12.0,73,0.00,,,0.00,,2013-02-18 01:01:00,
2013-02-17 20:12:00,17.0,10.0,30.13,WNW,302,6.0,12.0,73,0.00,,,0.00,,2013-02-18 01:12:00,
2013-02-17 20:21:00,17.0,10.0,30.13,WNW,294,7.0,11.0,72,0.00,,,0.00,,2013-02-18 01:21:00,
2013-02-17 20:32:00,17.0,9.0,30.14,WNW,286,6.0,13.0,71,0.00,,,0.00,,2013-02-18 01:32:00,
2013-02-17 20:42:00,17.0,9.0,30.14,WNW,286,6.0,13.0,71,0.00,,,0.00,,2013-02-18 01:42:00,
2013-02-17 20:52:00,17.0,8.0,30.14,West,276,12.0,15.0,67,0.00,,,0.00,,2013-02-18 01:52:00,
2013-02-17 21:02:00,17.0,7.0,30.15,WNW,282,8.0,17.0,63,0.00,,,0.00,,2013-02-18 02:02:00,
2013-02-17 21:11:00,17.0,7.0,30.15,WNW,282,8.0,17.0,63,0.00,,,0.00,,2013-02-18 02:11:00,
2013-02-17 21:22:00,17.0,7.0,30.16,WNW,302,10.0,15.0,63,0.00,,,0.00,,2013-02-18 02:22:00,
2013-02-17 21:32:00,17.0,6.0,30.16,WNW,296,9.0,18.0,62,0.00,,,0.00,,2013-02-18 02:32:00,
2013-02-17 21:42:00,17.0,6.0,30.16,WNW,296,9.0,18.0,62,0.00,,,0.00,,2013-02-18 02:42:00,
2013-02-17 21:52:00,17.0,6.0,30.16,West,279,10.0,20.0,62,0.00,,,0.00,,2013-02-18 02:52:00,
2013-02-17 22:02:00,16.0,5.0,30.16,WNW,285,8.0,16.0,62,0.00,,,0.00,,2013-02-18 03:02:00,
2013-02-17 22:11:00,16.0,5.0,30.16,WNW,285,8.0,16.0,62,0.00,,,0.00,,2013-02-18 03:11:00,
2013-02-17 22:22:00,16.0,5.0,30.17,WNW,296,7.0,14.0,62,0.00,,,0.00,,2013-02-18 03:22:00,
2013-02-17 22:32:00,16.0,6.0,30.17,NNW,336,10.0,17.0,63,0.00,,,0.00,,2013-02-18 03:32:00,
2013-02-17 22:42:00,16.0,6.0,30.17,NNW,336,10.0,17.0,63,0.00,,,0.00,,2013-02-18 03:42:00,
2013-02-17 22:52:00,16.0,5.0,30.17,WNW,299,7.0,16.0,62,0.00,,,0.00,,2013-02-18 03:52:00,
2013-02-17 23:01:00,15.0,5.0,30.17,WNW,291,3.0,8.0,63,0.00,,,0.00,,2013-02-18 04:01:00,
2013-02-17 23:11:00,15.0,5.0,30.17,WNW,291,3.0,8.0,63,0.00,,,0.00,,2013-02-18 04:11:00,
2013-02-17 23:21:00,15.0,5.0,30.18,NW,311,2.0,8.0,64,0.00,,,0.00,,2013-02-18 04:21:00,
2013-02-17 23:32:00,15.0,5.0,30.19,WNW,302,3.0,6.0,65,0.00,,,0.00,,2013-02-18 04:32:00,
2013-02-17 23:42:00,15.0,5.0,30.19,WNW,302,3.0,6.0,65,0.00,,,0.00,,2013-02-18 04:42:00,
2013-02-17 23:52:00,15.0,5.0,30.19,WNW,286,3.0,5.0,65,0.00,,,0.00,,2013-02-18 04:52:00,